GSMCB ESSB-EGNJ

Flight info

Callsign GSMCB
Flight time 2h 5m
Altitude 38000
Route PETEV N872 ELPAX Z703 UMIXA DCT DEMIR DCT MIMVA L602 EMLON M79 ROVNI
Aircraft A20N/M-SDE2E3FGHIRWXY/LB1

Departure

Time 2026-05-04 07:56
Airport Stockholm-Bromma Airport (ESSB)

Arrival

Time 2026-05-04 10:02
Airport Humberside Airport (EGNJ)
Time Latitude Longitude Altitude Speed Heading
2026-05-04 07:40 59.35806 17.94270 54 ft 0 kts 241°
2026-05-04 07:49 59.35813 17.94445 47 ft 0 kts 302°
2026-05-04 07:51 59.35819 17.94427 50 ft 7 kts 302°
2026-05-04 07:52 59.35855 17.94309 53 ft 11 kts 291°
2026-05-04 07:52 59.35844 17.94164 54 ft 11 kts 247°
2026-05-04 07:52 59.35790 17.94074 51 ft 10 kts 214°
2026-05-04 07:52 59.35766 17.93964 52 ft 9 kts 265°
2026-05-04 07:53 59.35750 17.93851 52 ft 8 kts 261°
2026-05-04 07:54 59.35976 17.92982 54 ft 0 kts 255°
2026-05-04 07:55 59.35958 17.92888 52 ft 13 kts 233°
2026-05-04 07:55 59.35909 17.92856 55 ft 8 kts 153°
2026-05-04 07:55 59.35882 17.92917 53 ft 0 kts 125°
2026-05-04 07:55 59.35874 17.92939 51 ft 15 kts 123°
2026-05-04 07:56 59.35653 17.93569 49 ft 94 kts 125°
2026-05-04 07:56 59.35156 17.94954 95 ft 147 kts 125°
2026-05-04 07:56 59.34590 17.96592 827 ft 144 kts 124°
2026-05-04 07:56 59.34007 17.98254 1710 ft 150 kts 129°
2026-05-04 07:57 59.33381 17.99958 2522 ft 164 kts 128°
2026-05-04 07:57 59.32643 18.01982 2901 ft 203 kts 127°
2026-05-04 07:57 59.31764 18.04441 3004 ft 251 kts 126°
2026-05-04 07:57 59.30634 18.07209 3004 ft 264 kts 142°
2026-05-04 07:58 59.29018 18.08811 3002 ft 261 kts 170°
2026-05-04 07:58 59.27231 18.08721 3004 ft 257 kts 199°
2026-05-04 07:58 59.25686 18.07048 3009 ft 255 kts 220°
2026-05-04 07:58 59.24360 18.04774 2999 ft 253 kts 224°
2026-05-04 07:59 59.23067 18.02434 3001 ft 253 kts 224°
2026-05-04 07:59 59.21741 18.00156 3000 ft 254 kts 222°
2026-05-04 07:59 59.20380 17.97950 3028 ft 255 kts 220°
2026-05-04 07:59 59.19010 17.95709 3296 ft 257 kts 229°
2026-05-04 08:00 59.18154 17.92698 4128 ft 256 kts 257°
2026-05-04 08:00 59.18060 17.89274 5317 ft 254 kts 273°
2026-05-04 08:00 59.18165 17.85801 6380 ft 258 kts 274°
2026-05-04 08:02 59.19031 17.59254 12271 ft 316 kts 272°
2026-05-04 08:02 59.19165 17.54950 13207 ft 319 kts 272°
2026-05-04 08:02 59.19297 17.50665 14036 ft 322 kts 272°
2026-05-04 08:03 59.19431 17.46269 14856 ft 325 kts 271°
2026-05-04 08:03 59.19565 17.41841 15665 ft 328 kts 271°
2026-05-04 08:03 59.19700 17.37370 16463 ft 331 kts 270°
2026-05-04 08:03 59.19834 17.32867 17247 ft 334 kts 270°
2026-05-04 08:04 59.19966 17.28368 18029 ft 337 kts 270°
2026-05-04 08:04 59.20099 17.23780 18708 ft 340 kts 270°
2026-05-04 08:04 59.20231 17.19154 19382 ft 343 kts 270°
2026-05-04 08:04 59.20363 17.14477 20053 ft 346 kts 269°
2026-05-04 08:05 59.20488 17.09757 20722 ft 348 kts 267°
2026-05-04 08:05 59.20230 17.05082 21375 ft 347 kts 254°
2026-05-04 08:05 59.19366 17.00675 22029 ft 348 kts 241°
2026-05-04 08:05 59.17951 16.96825 22678 ft 353 kts 228°
2026-05-04 08:06 59.16100 16.93631 23298 ft 358 kts 222°
2026-05-04 08:06 59.14175 16.90527 23855 ft 360 kts 222°
2026-05-04 08:06 59.12247 16.87410 24414 ft 362 kts 222°
2026-05-04 08:06 59.10301 16.84263 24950 ft 364 kts 222°
2026-05-04 08:08 58.96348 16.61797 28314 ft 381 kts 221°
2026-05-04 08:08 58.94293 16.58509 28728 ft 384 kts 221°
2026-05-04 08:10 58.77375 16.31651 31715 ft 398 kts 221°
2026-05-04 08:11 58.75231 16.28273 32132 ft 398 kts 221°
2026-05-04 08:11 58.70940 16.21528 32939 ft 398 kts 221°
2026-05-04 08:11 58.68823 16.18208 33335 ft 397 kts 221°
2026-05-04 08:12 58.66688 16.14866 33728 ft 397 kts 221°
2026-05-04 08:12 58.64545 16.11516 34034 ft 397 kts 221°
2026-05-04 08:12 58.62396 16.08161 34294 ft 398 kts 221°
2026-05-04 08:12 58.60246 16.04809 34552 ft 399 kts 221°
2026-05-04 08:13 58.58083 16.01443 34810 ft 400 kts 221°
2026-05-04 08:13 58.55921 15.98084 35071 ft 401 kts 221°
2026-05-04 08:13 58.53745 15.94710 35305 ft 402 kts 221°
2026-05-04 08:13 58.51565 15.91335 35552 ft 403 kts 221°
2026-05-04 08:14 58.49408 15.88001 35785 ft 404 kts 221°
2026-05-04 08:14 58.47215 15.84616 36016 ft 404 kts 221°
2026-05-04 08:14 58.45018 15.81231 36249 ft 405 kts 221°
2026-05-04 08:16 58.29569 15.57585 37704 ft 410 kts 221°
2026-05-04 08:16 58.25109 15.50811 37749 ft 409 kts 221°
2026-05-04 08:17 58.20658 15.44072 37749 ft 409 kts 221°
2026-05-04 08:17 58.16200 15.37344 37750 ft 409 kts 221°
2026-05-04 08:19 57.99009 15.09313 37757 ft 408 kts 224°
2026-05-04 08:20 57.94794 15.02136 37757 ft 408 kts 224°
2026-05-04 08:20 57.90572 14.94976 37759 ft 408 kts 224°
2026-05-04 08:21 57.86343 14.87827 37765 ft 409 kts 224°
2026-05-04 08:21 57.82110 14.80695 37764 ft 409 kts 224°
2026-05-04 08:22 57.77899 14.73623 37765 ft 409 kts 224°
2026-05-04 08:24 57.60876 14.45271 37775 ft 410 kts 224°
2026-05-04 08:24 57.56601 14.38208 37775 ft 410 kts 224°
2026-05-04 08:25 57.52345 14.31201 37797 ft 410 kts 224°
2026-05-04 08:25 57.48058 14.24164 37790 ft 411 kts 224°
2026-05-04 08:27 57.30862 13.96170 37794 ft 412 kts 223°
2026-05-04 08:28 57.26544 13.89197 37803 ft 412 kts 223°
2026-05-04 08:28 57.22256 13.82295 37809 ft 412 kts 223°
2026-05-04 08:29 57.17945 13.75376 37802 ft 412 kts 223°
2026-05-04 08:31 57.01511 13.46156 37818 ft 411 kts 226°
2026-05-04 08:33 56.85098 13.16855 37844 ft 412 kts 226°
2026-05-04 08:35 56.68627 12.87832 37860 ft 412 kts 226°
2026-05-04 08:35 56.64490 12.80599 37861 ft 412 kts 226°
2026-05-04 08:37 56.49984 12.55424 37854 ft 412 kts 226°
2026-05-04 08:38 56.45856 12.48312 37857 ft 412 kts 226°
2026-05-04 08:38 56.41704 12.41179 37853 ft 412 kts 226°
2026-05-04 08:40 56.25037 12.12776 37869 ft 412 kts 225°
2026-05-04 08:41 56.20859 12.05713 37873 ft 412 kts 225°
2026-05-04 08:41 56.16675 11.98661 37880 ft 412 kts 225°
2026-05-04 08:42 56.12513 11.91668 37882 ft 413 kts 225°
2026-05-04 08:42 56.08319 11.84642 37887 ft 413 kts 225°
2026-05-04 08:43 56.04119 11.77630 37890 ft 413 kts 225°
2026-05-04 08:43 56.00626 11.71814 37897 ft 413 kts 225°
2026-05-04 08:44 55.96419 11.64830 37899 ft 413 kts 225°
2026-05-04 08:46 55.79545 11.37030 37916 ft 413 kts 225°
2026-05-04 08:46 55.75309 11.30106 37919 ft 413 kts 225°
2026-05-04 08:47 55.71099 11.23245 37921 ft 413 kts 225°
2026-05-04 08:47 55.66860 11.16358 37924 ft 413 kts 225°
2026-05-04 08:48 55.62618 11.09488 37925 ft 413 kts 225°
2026-05-04 08:48 55.58360 11.02613 37927 ft 413 kts 225°
2026-05-04 08:49 55.54106 10.95765 37928 ft 413 kts 225°
2026-05-04 08:50 55.39222 10.71969 37933 ft 414 kts 225°
2026-05-04 08:51 55.34943 10.65174 37934 ft 415 kts 224°
2026-05-04 08:51 55.30652 10.58381 37948 ft 415 kts 224°
2026-05-04 08:52 55.26354 10.51598 37949 ft 416 kts 224°
2026-05-04 08:52 55.22042 10.44814 37952 ft 416 kts 224°
2026-05-04 08:54 55.04763 10.17832 37971 ft 417 kts 224°
2026-05-04 08:55 55.00422 10.11105 37973 ft 417 kts 224°
2026-05-04 08:55 54.96071 10.04382 37971 ft 417 kts 224°
2026-05-04 08:57 54.82317 9.79059 37957 ft 412 kts 244°
2026-05-04 09:01 54.67290 9.14675 37980 ft 413 kts 248°
2026-05-04 09:01 54.65124 9.05498 37993 ft 413 kts 248°
2026-05-04 09:02 54.62949 8.96319 37991 ft 413 kts 248°
2026-05-04 09:02 54.60767 8.87150 37996 ft 413 kts 248°
2026-05-04 09:03 54.58578 8.77987 37997 ft 413 kts 248°
2026-05-04 09:03 54.56381 8.68836 37996 ft 413 kts 248°
2026-05-04 09:04 54.54191 8.59747 38001 ft 413 kts 248°
2026-05-04 09:04 54.51981 8.50615 38002 ft 413 kts 248°
2026-05-04 09:05 54.49767 8.41508 38004 ft 412 kts 248°
2026-05-04 09:05 54.47547 8.32411 38008 ft 412 kts 248°
2026-05-04 09:06 54.45319 8.23319 38005 ft 412 kts 248°
2026-05-04 09:08 54.36345 7.87081 38011 ft 413 kts 247°
2026-05-04 09:08 54.34076 7.78009 38015 ft 413 kts 247°
2026-05-04 09:09 54.31802 7.68957 38017 ft 413 kts 247°
2026-05-04 09:09 54.29536 7.59973 38018 ft 414 kts 247°
2026-05-04 09:10 54.27247 7.50935 38018 ft 414 kts 247°
2026-05-04 09:10 54.24947 7.41890 38020 ft 414 kts 247°
2026-05-04 09:11 54.22640 7.32853 38019 ft 414 kts 246°
2026-05-04 09:11 54.20341 7.23887 38026 ft 415 kts 246°
2026-05-04 09:12 54.18019 7.14864 38028 ft 415 kts 246°
2026-05-04 09:14 54.08666 6.78884 38024 ft 416 kts 246°
2026-05-04 09:14 54.06307 6.69900 38023 ft 416 kts 246°
2026-05-04 09:15 54.03937 6.60908 38022 ft 416 kts 246°
2026-05-04 09:15 54.01556 6.51913 38025 ft 417 kts 246°
2026-05-04 09:17 53.90761 6.11566 38023 ft 418 kts 245°
2026-05-04 09:18 53.88336 6.02598 38019 ft 418 kts 245°
2026-05-04 09:18 53.85905 5.93645 38017 ft 418 kts 245°
2026-05-04 09:19 53.83465 5.84691 38016 ft 418 kts 245°
2026-05-04 09:19 53.81017 5.75747 38014 ft 419 kts 245°
2026-05-04 09:20 53.78562 5.66808 38011 ft 419 kts 245°
2026-05-04 09:20 53.76115 5.57933 38014 ft 419 kts 245°
2026-05-04 09:21 53.73641 5.48996 38012 ft 420 kts 245°
2026-05-04 09:21 53.71157 5.40059 38012 ft 420 kts 245°
2026-05-04 09:22 53.68661 5.31110 38012 ft 421 kts 244°
2026-05-04 09:22 53.66171 5.22219 38034 ft 421 kts 244°
2026-05-04 09:23 53.63658 5.13279 38038 ft 422 kts 244°
2026-05-04 09:23 53.61139 5.04354 38019 ft 422 kts 244°
2026-05-04 09:25 53.50973 4.68671 38018 ft 424 kts 244°
2026-05-04 09:26 53.48406 4.59746 38013 ft 425 kts 244°
2026-05-04 09:26 53.45827 4.50812 38022 ft 425 kts 244°
2026-05-04 09:27 53.43238 4.41882 38023 ft 425 kts 244°
2026-05-04 09:27 53.40643 4.32961 38031 ft 426 kts 244°
2026-05-04 09:28 53.38055 4.24099 38019 ft 426 kts 243°
2026-05-04 09:28 53.35439 4.15173 38019 ft 426 kts 243°
2026-05-04 09:29 53.32817 4.06260 38013 ft 427 kts 243°
2026-05-04 09:29 53.30630 3.98854 38018 ft 427 kts 243°
2026-05-04 09:30 53.27995 3.89959 38025 ft 427 kts 243°
2026-05-04 09:30 53.25348 3.81059 38013 ft 428 kts 243°
2026-05-04 09:31 53.22693 3.72164 38007 ft 428 kts 243°
2026-05-04 09:31 53.20048 3.63336 38019 ft 428 kts 243°
2026-05-04 09:32 53.17378 3.54450 38025 ft 428 kts 243°
2026-05-04 09:34 53.11246 3.21855 38005 ft 433 kts 277°
2026-05-04 09:34 53.11852 3.16931 38003 ft 435 kts 281°
2026-05-04 09:34 53.13175 3.07106 38012 ft 435 kts 281°
2026-05-04 09:35 53.14468 2.97309 38013 ft 436 kts 281°
2026-05-04 09:35 53.15759 2.87423 38016 ft 437 kts 280°
2026-05-04 09:37 53.20781 2.47650 38034 ft 438 kts 277°
2026-05-04 09:38 53.21231 2.42640 37871 ft 436 kts 277°
2026-05-04 09:38 53.21695 2.37632 37317 ft 436 kts 277°
2026-05-04 09:38 53.22159 2.32668 36517 ft 440 kts 277°
2026-05-04 09:38 53.22630 2.27599 35608 ft 444 kts 277°
2026-05-04 09:39 53.23101 2.22483 34723 ft 448 kts 277°
2026-05-04 09:39 53.23571 2.17339 33895 ft 448 kts 277°
2026-05-04 09:39 53.24039 2.12194 32997 ft 447 kts 277°
2026-05-04 09:39 53.24504 2.07059 32090 ft 447 kts 277°
2026-05-04 09:40 53.24964 2.01941 31189 ft 446 kts 277°
2026-05-04 09:40 53.25421 1.96820 30282 ft 446 kts 276°
2026-05-04 09:40 53.25877 1.91684 29208 ft 447 kts 276°
2026-05-04 09:40 53.26327 1.86570 28335 ft 443 kts 276°
2026-05-04 09:41 53.26772 1.81502 27550 ft 438 kts 276°
2026-05-04 09:42 53.29697 1.47581 22891 ft 400 kts 276°
2026-05-04 09:43 53.30082 1.43028 22339 ft 393 kts 276°
2026-05-04 09:43 53.30459 1.38541 21793 ft 386 kts 276°
2026-05-04 09:43 53.30828 1.34135 21253 ft 380 kts 276°
2026-05-04 09:43 53.31189 1.29799 20722 ft 374 kts 276°
2026-05-04 09:44 53.31540 1.25563 20199 ft 369 kts 276°
2026-05-04 09:44 53.31889 1.21337 19676 ft 364 kts 276°
2026-05-04 09:44 53.32232 1.17171 19164 ft 359 kts 276°
2026-05-04 09:46 53.34483 0.89309 15624 ft 331 kts 276°
2026-05-04 09:46 53.34784 0.85508 15143 ft 328 kts 276°
2026-05-04 09:46 53.35082 0.81734 14660 ft 326 kts 276°
2026-05-04 09:47 53.35373 0.78037 14199 ft 324 kts 276°
2026-05-04 09:47 53.35665 0.74316 13711 ft 322 kts 276°
2026-05-04 09:49 53.37620 0.49009 10498 ft 330 kts 276°
2026-05-04 09:49 53.37911 0.45171 10348 ft 330 kts 276°
2026-05-04 09:49 53.38182 0.41603 10265 ft 321 kts 276°
2026-05-04 09:51 53.39683 0.21495 8499 ft 275 kts 276°
2026-05-04 09:51 53.39917 0.18318 7956 ft 273 kts 276°
2026-05-04 09:51 53.40146 0.15194 7592 ft 267 kts 277°
2026-05-04 09:51 53.40369 0.12138 7242 ft 261 kts 277°
2026-05-04 09:52 53.40587 0.09143 6893 ft 256 kts 277°
2026-05-04 09:52 53.40800 0.06196 6553 ft 252 kts 277°
2026-05-04 09:52 53.41009 0.03296 6193 ft 249 kts 277°
2026-05-04 09:52 53.41215 0.00439 5852 ft 245 kts 277°
2026-05-04 09:53 53.41421 -0.02430 5529 ft 261 kts 277°
2026-05-04 09:53 53.41651 -0.05625 5230 ft 284 kts 277°
2026-05-04 09:53 53.41883 -0.08869 5164 ft 275 kts 277°
2026-05-04 09:53 53.42106 -0.12009 4813 ft 269 kts 277°
2026-05-04 09:54 53.42325 -0.15120 4263 ft 269 kts 277°
2026-05-04 09:54 53.42545 -0.18232 3860 ft 267 kts 277°
2026-05-04 09:54 53.42761 -0.21317 3305 ft 267 kts 277°
2026-05-04 09:54 53.42968 -0.24289 2912 ft 250 kts 277°
2026-05-04 09:55 53.43162 -0.27093 2444 ft 236 kts 278°
2026-05-04 09:55 53.43346 -0.29774 2206 ft 235 kts 278°
2026-05-04 09:55 53.43535 -0.32475 2136 ft 229 kts 278°
2026-05-04 09:55 53.43710 -0.35024 2014 ft 210 kts 278°
2026-05-04 09:56 53.43865 -0.37304 2022 ft 182 kts 278°
2026-05-04 09:56 53.43994 -0.39217 1986 ft 149 kts 279°
2026-05-04 09:56 53.44103 -0.40826 2011 ft 136 kts 280°
2026-05-04 09:56 53.44422 -0.42263 2004 ft 128 kts 320°
2026-05-04 09:57 53.45204 -0.42949 2006 ft 126 kts 352°
2026-05-04 09:57 53.46064 -0.42940 2007 ft 122 kts 15°
2026-05-04 09:57 53.46828 -0.42423 2011 ft 121 kts 28°
2026-05-04 09:57 53.47606 -0.41815 1987 ft 123 kts 25°
2026-05-04 09:58 53.48394 -0.41268 2003 ft 124 kts 24°
2026-05-04 09:58 53.49197 -0.40730 2003 ft 124 kts 24°
2026-05-04 09:58 53.49996 -0.40195 1876 ft 123 kts 24°
2026-05-04 10:00 53.55487 -0.36432 401 ft 122 kts 24°
2026-05-04 10:00 53.56264 -0.35890 221 ft 119 kts 23°
2026-05-04 10:02 53.58171 -0.34906 84 ft 3 kts 309°
2026-05-04 10:04 53.58270 -0.34899 84 ft 0 kts 46°